Regional Weather Roundup
Issued by NWS Grand Forks, ND

Home | Current Version | Previous Version | Text Only | Print | Product List | Glossary Off
Versions: 1 2 3 4 5 6 7 8 9 10 11 12 13 14 15 16 17 18 19 20 21 22 23 24 25 26 27 28 29 30 31 32 33 34 35 36 37 38 39 40 41 42 43 44 45 46 47 48 49 50

000
ASUS43 KFGF 202031
RWRFGF
PRAIRIE TO PINES  WEATHER ROUNDUP
NATIONAL WEATHER SERVICE EASTERN NORTH DAKOTA/GRAND FORKS ND
200 PM CST SAT DEC 20 2014

 **SATELLITE DATA USED TO AUGMENT SKY COVER AT AUTOMATED STATIONS**
 *****  WEATHER ACROSS EASTERN NORTH DAKOTA  *****

CITY           SKY/WX    TMP DP  RH WIND       PRES   REMARKS
GRAND FORKS    FOG       28  27  96 S10       29.95F VSB 1   WCI  19
GRAND FRKS AFB CLOUDY    28  28 100 S13       29.94F FOG     WCI  18
GRAND FRKS NWS   N/A     28 N/A N/A S14         N/A  WCI  17
DEVILS LAKE    CLOUDY    25  18  74 SE7       29.85F VSB 1/2 WCI  17
FARGO          CLOUDY    31  28  89 S16       29.97F FOG     WCI  20
WAHPETON ARPT  CLOUDY    32  28  86 S10       29.98F WCI  24
$$

 ***** WEATHER ACROSS CENTRAL AND WESTERN NORTH DAKOTA  *****

CITY           SKY/WX    TMP DP  RH WIND       PRES   REMARKS
BISMARCK       MOSUNNY   29  27  92 SE6       29.84F WCI  23
MINOT          CLOUDY    25  23  92 E6        29.80F FOG     WCI  18
JAMESTOWN      CLOUDY    29  25  85 S15       29.88F FOG     WCI  18
MINOT AFB      CLOUDY    24  24 100 SE6       29.80F WCI  17
GARRISON         N/A     32  27  81 S3        29.80F
WILLISTON      SUNNY     36  31  82 SW8       29.78F
DICKINSON      SUNNY     47  30  51 W13       29.79F
HETTINGER      SUNNY     46  29  51 W18       29.84F
$$

 *****  OTHER AIRPORT OBSERVATIONS IN OUR AREA  *****

CITY           SKY/WX    TMP DP  RH WIND       PRES   REMARKS
WALHALLA         N/A     27  27 100 S7        29.91F WCI  19
GRAFTON AIRPOR NOT AVBL
VALLEY CITY AR CLOUDY    27  27 100 MISG      29.92S FOG
CANDO          FOG       27  25  93 SE12      29.86F VSB 1/4 WCI  16
CAVALIER APRT  CLOUDY    27  27 100 S8        29.92F FOG     WCI  18
GWINNER        CLOUDY    32  32 100 MISG      29.95F
SHEYENNE NWR     N/A     29  27  92 S8        29.95S WCI  21
ROLLA          FOG       23  23 100 S17       29.83F VSB<1/4 WCI   9
 ***** THE ABOVE OBSERVATIONS ARE NON NWS ARE NOT QUALITY
       CONTROLLED AND MAY MIS-REPORT RAIN FOR SNOW...
$$

  *****  WEATHER ACROSS NORTHERN MINNESOTA  *****

CITY           SKY/WX    TMP DP  RH WIND       PRES   REMARKS
FLAG ISLAND    CLOUDY    28  27  93 SW12      29.96S WCI  18
WARROAD        CLOUDY    28  27  93 S6        29.96F FOG     WCI  22
ROSEAU         CLOUDY    30  25  80 S10       29.95F HAZE    WCI  21
HALLOCK        CLOUDY    28  27  93 CALM      29.94F FOG
THF RVR FALLS  CLOUDY    30  28  93 S10       29.96F WCI  21
BAUDETTE       CLOUDY    31  27  85 S10       29.97F WCI  22
WASKISH        CLOUDY    30  28  93 CALM      29.98F FOG
CROOKSTON      CLOUDY    28  28 100 S13       29.97F FOG     WCI  18
STEPHEN NDAWN    N/A     28  27  93 S10         N/A  WCI  19
GREENBUSH NDAW   N/A     28  28 100 S1          N/A
$$
  *****  WEATHER ACROSS CENTRAL AND WEST MINNESOTA  *****

CITY           SKY/WX    TMP DP  RH WIND       PRES   REMARKS
FOSSTON        CLOUDY    27  27 100 S12       29.98S FOG     WCI  16
BEMIDJI          N/A     28  28  96 S8        29.98F FOG     WCI  20
PARK RAPIDS    CLOUDY    30  28  92 S12       29.99S FOG     WCI  20
ELBOW LAKE     CLOUDY    30  28  93 S12       30.00F FOG     WCI  21
WADENA         CLOUDY    28  27  93 S12       30.00S FOG     WCI  18
DETROIT LAKES  CLOUDY    30  30 100 S14       29.99S FOG     WCI  20
MOORHEAD       CLOUDY    30  30 100 S10       29.99F FOG     WCI  21
FERGUS FALLS   CLOUDY    30  28  93 S13       30.02F FOG     WCI  20
MORRIS MN      SUNNY     32  28  86 S10       30.00F FOG     WCI  24
STAPLES        CLOUDY    28  27  93 S9        30.02F FOG     WCI  20
$$
  *****  WEATHER ELSEWHERE ACROSS MINNESOTA  *****

CITY           SKY/WX    TMP DP  RH WIND       PRES   REMARKS
DULUTH         CLOUDY    30  25  81 S10       30.06F HAZE    WCI  21
INTRNTL FALLS  CLOUDY    30  28  92 S5        30.00F FOG
ELY            CLOUDY    28  27  93 S9        30.04F WCI  20
CLOQUET        CLOUDY    30  27  86 S6        30.06F FOG     WCI  24
WHEATON        CLOUDY    28  27  93 S10       30.01F FOG     WCI  19
BRAINERD       CLOUDY    30  27  88 S7        30.05S WCI  23
HIBBING        CLOUDY    30  26  85 S7        30.03F FOG     WCI  23
ALEXANDRIA     CLOUDY    30  27  88 S12       30.02F FOG     WCI  20
SAINT CLOUD    CLOUDY    32  26  78 S13       30.07F WCI  22
MINNEAPOLIS    CLOUDY    31  27  85 S10       30.12F WCI  22
$$

  *****  WEATHER ACROSS SOUTH DAKOTA  *****

CITY           SKY/WX    TMP DP  RH WIND       PRES   REMARKS
SIOUX FALLS    CLOUDY    31  29  92 S12       30.02F WCI  22
BROOKINGS      NOT AVBL
WATERTOWN      CLOUDY    30  28  92 S14       29.96F FOG     WCI  19
HURON          CLOUDY    27  26  96 S12       29.97F FOG     WCI  17
SISSETON         N/A     31  29  92 S12       29.97F WCI  22
ABERDEEN       CLOUDY    28  26  92 S12       29.96F FOG     WCI  18
MITCHELL       CLOUDY    32  30  92 SE14      29.98F FOG     WCI  22
PIERRE         CLOUDY    27  24  89 CALM      29.90F
MOBRIDGE       CLOUDY    30  27  88 SE13      29.85F WCI  20
RAPID CITY     PTSUNNY   50  27  40 N10       29.88F
$$

  *****  SOME WEATHER IN NEARBY STATES *****

CITY           SKY/WX    TMP DP  RH WIND       PRES   REMARKS
GLASGOW MT     SUNNY     45  23  42 W21       29.78F
GREAT FALLS MT CLOUDY    40  23  50 SW18G25   29.77F
CHEYENNE WY    MOSUNNY   45  18  34 W18G28    29.95F
SCOTTSBLUFF NE SUNNY     41  30  65 N6        29.94F
OMAHA NE       CLOUDY    34  32  92 S6        30.08F FOG
DES MOINES IA  CLOUDY    35  32  88 S9        30.11F FOG
DAVENPORT IA   CLOUDY    33  26  75 SE9       30.19F HAZE
CHICAGO IL     CLOUDY    32  23  69 SW7       30.23F
EAU CLAIRE WI  CLOUDY    32  25  75 S8        30.15F WCI  25
LA CROSSE WI   CLOUDY    33  27  78 S6        30.17F HAZE
$$

  *****  SOME NATIONAL WEATHER *****

CITY           SKY/WX    TMP DP  RH WIND       PRES   REMARKS
LA GUARDIA NY  CLOUDY    33  20  58 N3        30.26S
RALEIGH NC     CLOUDY    37  33  85 CALM      30.25R
ATLANTA GA     CLOUDY    51  45  79 NW6       30.14F
NEW ORLEANS LA CLOUDY    53  48  83 N12       30.11S
OKLAHOMA CITY  CLOUDY    45  37  76 SW12      30.15F
ALBUQUERQUE NM MOSUNNY   40  25  55 CALM      30.12F
SALT LAKE CITY LGT RAIN  39  35  86 W6        30.10S FOG
LOS ANGELES CA PTSUNNY   62  50  64 CALM      30.17F
BOISE ID       CLOUDY    44  37  76 E13       29.96F
SEATTLE WA     LGT RAIN  46  43  89 SE12      29.59F FOG
$$

*** WEATHER ACROSS MANITOBA...SASKATCHEWAN AND ONTARIO ***
                ***ONTARIO***

CITY           SKY/WX    TMP DP  RH WIND       PRES   REMARKS
GERALDTON      FLURRIES  25  23  93 SE6       30.13F WCI  18
THUNDER BAY    FLURRIES  32  28  86 S8        30.13  WCI  25
SIOUX LOOKOUT  FLURRIES  27  25  93 S5        30.01  WCI  21
TORONTO        PTSUNNY   30  21  69 SE7       30.25S WCI  23
BIG TROUT LK   CLOUDY    21  21 100 SE7       30.06F WCI  13
PICKLE LAKE    FLURRIES  25  19  80 SE6       30.03F WCI  18
DRYDEN         CLOUDY    27  27 100 S5        29.99F FOG     WCI  21
KENORA         FRZ DRZL  27  27 100 S9        29.96S FOG     WCI  17
$$
                *** MANITOBA***

CITY           SKY/WX    TMP DP  RH WIND       PRES   REMARKS
BRANDON        CLOUDY    23  23 100 S9        29.86F FOG     WCI  13
DAUPHIN        CLOUDY    27  21  80 VRB2      29.86F
ISLAND LAKE    FLURRIES  21  21 100 SE7       29.97F WCI  13
PILOT MOUND      N/A     23  21  93 S1          N/A
THE PAS        CLOUDY    19  18  93 S10       29.84F WCI   8
THOMPSON       FLURRIES  18  14  86 S6        29.92F WCI   9
WINNIPEG       FRZ DRZL  27  25  93 S3        29.94S FOG
LYNN LAKE      CLOUDY    16  14  93 S6        29.80S WCI   7
CHURCHILL      FLURRIES  16  14  93 S10       29.94F WCI   3
GILLAM         FLURRIES  18  16  93 S6        29.99  WCI   9
$$
                ***SASKATCHEWAN***

CITY           SKY/WX    TMP DP  RH WIND       PRES   REMARKS
ESTEVAN        PTSUNNY   28  27  93 SE6       29.75  WCI  22
KINDERSLEY     MOSUNNY   23  21  93 SW6       29.68  WCI  16
LLOYDMINSTER   PTSUNNY   21  19  93 S2        29.64
PRINCE ALBERT  LGT SNOW  19  18  93 E7        29.73  FOG     WCI  10
REGINA         CLOUDY    28  28 100 SE10      29.70  FOG     WCI  19
YORKTON        CLOUDY    21  21 100 SE14G20   29.76F FOG     WCI   8
N. BATTLEFORD  CLOUDY    21  19  93 VRB2      29.70S
LA RONGE       CLOUDY    16  14  93 SE6       29.76  WCI   7
SASKATOON      LGT SNOW  21  19  93 W6        29.71  FOG     WCI  14
SWIFT CURRENT  SUNNY     36  27  69 W16       29.67
$$
NOTE: THESE ARE AUTOMATED STATIONS WITH LIMITED QUALITY CONTROL
      "FAIR" INDICATES FEW OR NO CLOUDS BELOW 12,000 FEET WITH NO
      SIGNIFICANT WEATHER AND/OR OBSTRUCTIONS TO VISIBILITY.
      SKY/WX - SKY CONDITION AND SIGNIFICANT WEATHER.
      TMP - AIR TEMPERATURE.    DP   - DEWPOINT TEMPERATURE.
      RH  - RELATIVE HUMIDITY.  PRES - PRESSURE.
      HX  - HEAT INDEX.         WCI  - WIND CHILL INDEX.
$


USA.gov is the U.S. government's official web portal to all federal, state and local government web resources and services.